Regional Weather Roundup
Issued by NWS

Home | Current Version | Previous Version | Text Only | Print | Product List | Glossary Off
Versions: 1 2 3 4 5 6 7 8 9 10 11 12 13 14 15 16 17 18 19 20 21 22 23 24 25 26 27 28 29 30 31 32 33 34 35 36 37 38 39 40 41 42 43 44 45 46 47 48 49 50

695
ASUS43 KMKX 291400
RWRWI

WISCONSIN REGIONAL WEATHER ROUNDUP
NATIONAL WEATHER SERVICE MILWAUKEE/SULLIVAN WI
900 AM CDT THU JUN 29 2017

NOTE: "FAIR" INDICATES FEW OR NO CLOUDS BELOW 12,000 FEET WITH NO
SIGNIFICANT WEATHER AND/OR OBSTRUCTIONS TO VISIBILITY.

WIZ001-002-006>008-014>016-023>028-291500-
NORTHWEST WISCONSIN

CITY           SKY/WX    TMP DP  RH WIND       PRES   REMARKS
SUPERIOR ARPT  NOT AVBL
ASHLAND        CLOUDY    58  56  93 NW6       29.64R
HAYWARD        CLOUDY    61  59  93 VRB3      29.66F FOG
SIREN          CLOUDY    62  59  89 W9        29.69F
CUMBERLAND     CLOUDY    61  55  82 NW12      29.69S
RICE LAKE      CLOUDY    63  58  83 W13       29.69F
CHETEK         CLOUDY    63  60  89 W7        29.68F
LADYSMITH      CLOUDY    62  60  95 W8        29.68F
EAU CLAIRE     CLOUDY    66  61  84 W14       29.68S
MENOMONIE      CLOUDY    66  62  86 W8        29.69S
NEW RICHMOND   CLOUDY    63  61  95 W7        29.72R
OSCEOLA        CLOUDY    64  64 100 NW6       29.74R
$$

WIZ003>005-009-010-017-018-291500-
NORTH CENTRAL WISCONSIN

CITY           SKY/WX    TMP DP  RH WIND       PRES   REMARKS
MANITOWISH WTR CLOUDY    58  58 100 W13       29.63R
ARBOR VITAE    DRIZZLE   60  59  96 W12       29.63R
WOODRUFF       DRIZZLE   60  59  96 W12       29.63R
RHINELANDER    CLOUDY    62  62 100 W15G23    29.64S
EAGLE RIVER    DRIZZLE   60  60 100 W12G20    29.62R
LAND O LAKES   LGT RAIN  60  59  97 W12G18    29.62R
PHILLIPS       CLOUDY    60  60 100 W7        29.65S
TOMAHAWK       NOT AVBL
MEDFORD        CLOUDY    61  59  92 W13G18    29.67S
MERRILL        CLOUDY    65  63  93 W9        29.65S
$$

WIZ029-030-035-036-043>047-291500-
CENTRAL WISCONSIN

CITY           SKY/WX    TMP DP  RH WIND       PRES   REMARKS
WAUSAU         CLOUDY    66  61  84 W15       29.64S
MOSINEE        CLOUDY    66  63  88 W16G22    29.67S
MARSHFIELD     CLOUDY    64  59  83 W9        29.67S
STEVENS POINT  CLOUDY    64  62  91 SW6G16    29.67F
WAUPACA        PTSUNNY   70  65  83 W10       29.68S
WAUTOMA        CLOUDY    70  63  78 W15G23    29.69S
WISC RAPIDS    CLOUDY    67  61  81 W13G20    29.69S
CAMP DOUGLAS   PTSUNNY   70  63  78 W12       29.71R
$$

WIZ011>013-019>022-031-037>040-048>050-291500-
NORTHEAST WISCONSIN

CITY           SKY/WX    TMP DP  RH WIND       PRES   REMARKS
ANTIGO         CLOUDY    65  62  90 W14       29.64F
SHAWANO        CLOUDY    72  63  73 W10G17    29.64S
OCONTO         PTSUNNY   71  63  76 W13G20    29.62S
STURGEON BAY     N/A     69  65  86 SW15      29.64S
GREEN BAY      PTSUNNY   72  65  78 SW13G21   29.65F
MANITOWOC      NOT AVBL
APPLETON       PTSUNNY   70  64  83 W14G21    29.66F
CLINTONVILLE   CLOUDY    70  63  78 SW10      29.65S
OSHKOSH        PTSUNNY   70  62  76 W12G25    29.68R
$$

WIZ032>034-041-042-053>061-291500-
SOUTHWEST WISCONSIN

CITY           SKY/WX    TMP DP  RH WIND       PRES   REMARKS
LA CROSSE      MOSUNNY   74  63  68 W9        29.71S
SPARTA         PTSUNNY   67  62  84 W5        29.72R
VIROQUA        CLOUDY    67  64  93 W5        29.74S
BOSCOBEL       CLOUDY    72  65  78 SW8       29.74R
PRAIRIE DU CHI MOSUNNY   70  65  82 S7        29.74S
PLATTEVILLE    CLOUDY    68  68  99 W10       29.77S
$$

WIZ056-057-062-063-064-067-068-291500-
SOUTH CENTRAL WISCONSIN

CITY           SKY/WX    TMP DP  RH WIND       PRES   REMARKS
REEDSBURG      CLOUDY    69  65  88 W12G17    29.72S
BARABOO/DELLS  CLOUDY    69  63  79 W14       29.72S
LONE ROCK      CLOUDY    72  64  76 W15       29.73S
MINERAL POINT  CLOUDY    70  68  94 W13       29.76S
MADISON        CLOUDY    71  65  81 VRB7      29.72S
MIDDLETON      CLOUDY    71  66  86 W13G18    29.74R
WATERTOWN      CLOUDY    69  67  94 W9G17     29.73S
MONROE         CLOUDY    68  63  83 W15G22    29.75S
JANESVILLE     PTSUNNY   73  64  73 W12G17    29.74R
$$

WIZ051-052-058>065-066-070>072-291500-
SOUTHEAST WISCONSIN

CITY           SKY/WX    TMP DP  RH WIND       PRES   REMARKS
MILWAUKEE      CLOUDY    75  66  73 W12G20    29.72S
WAUKESHA       CLOUDY    70  64  83 W14G21    29.75R
MILWAUKEE/TIMM CLOUDY    72  63  73 W12       29.73R
RACINE         MOSUNNY   73  63  70 SW13G21   29.74S
KENOSHA        MOSUNNY   73  63  70 W15G23    29.74S
FOND DU LAC    PTSUNNY   73  63  70 W16       29.69S
SHEBOYGAN      CLOUDY    72  68  87 W20G25    29.69R
WEST BEND      CLOUDY    70  66  88 W12G22    29.71R
JUNEAU         CLOUDY    69  66  89 SW14      29.73R
$$

LSZ147-162-291500-
LAKE SUPERIOR

STATION/POSITION TIME  TEMP    WIND        PRES    WAVE
                       AIR SEA DIR/SP/G            HT/PER
                 (UTC) (F)     (DEG/KT/KT) (MB)    (FT/S)
W MID LAKE BUOY  1250   42 39   20/ 10/ 12 1001.0R   3/ 5
DEVILS ISLAND    1300   47     360/ 16/ 17 1002.1R
SAXON HARBOR     1340   59     290/  7/ 12 1002.7R
$$

LMZ867-665-643>646-291500-
LAKE MICHIGAN

STATION/POSITION TIME  TEMP    WIND        PRES    WAVE
                       AIR SEA DIR/SP/G            HT/PER
                 (UTC) (F)     (DEG/KT/KT) (MB)    (FT/S)
CHAMBERS ISLAND  1340   69     180/  5/ 13 1002.7R
S GREEN BAY BUOY 1330   67     220/ 14/ 16 1003.5R
N MID LAKE BUOY  1250   56 54  190/ 14/ 16 1003.3F   6/ 7
NORTHPORT PIER   1340   65     170/  3/ 10 1003.0R
KEWAUNEE LAKESHO 1330   56     220/  4/  7 1003.9S
SHEBOYGAN LAKESH 1300   72     250/ 14/ 17 1004.3S
PORT WASHINGTON  1330   74     260/ 11/ 24 1006.4R
ATWATER BUOY     1209   67 44  240/ 14/ 16 1005.8R
MILWAUKEE LAKESH 1330   72     250/ 16/ 20   N/A
S MID LAKE BUOY  1250   66 60  240/ 17/ 19 1006.7R   3/ 4
KENOSHA   LAKESH 1300   72     240/  8/ 16 1006.8
$$

TC  - TEMPERATURE IN CELSIUS
VSB - VISIBILITY IN STATUTE MILES
WCI - WIND CHILL INDEX
HX  - HEAT INDEX





USA.gov is the U.S. government's official web portal to all federal, state and local government web resources and services.